Atlantic - Newfoundland: Past 24 Hour Conditions

 

Natashquan Airport

11:00 AM EDT 30 July 2014
This table is a summary of hourly weather conditions for the past 24 hours.
Date / Time
(EDT)
Wind(knots) Conditions Visibility(km) Pressure(kPa) Air tempC) Relative humidity(%) Dew pointC) Humidex
30 July 2014
11:00 WSW 9 Sunny 16 101.8 18 74 14 *
10:00 W 8 Sunny 16 101.7 18 75 14 *
9:00 WSW 10 Sunny 16 101.7 18 77 13 *
8:00 WSW 8 Sunny 16 101.7 17 81 14 *
7:00 SW 8 Sunny 16 101.6 17 84 14 *
6:00 SW 6 Sunny 16 101.5 16 87 14 *
5:00 SSW 8 Sunny 16 101.5 15 89 13 *
4:00 SSW 8 Clear 16 101.4 15 89 13 *
3:00 SSW 6 Clear 16 101.3 15 92 13 *
2:00 SSW 7 Clear 16 101.2 15 91 14 *
1:00 SSW 5 Clear 16 101.1 14 94 13 *
0:00 WSW 4 Mainly Clear 16 101.1 15 92 13 *
29 July 2014
23:00 W 7 Cloudy 16 101.0 16 87 14 *
22:00 S 13 Mostly Cloudy 16 100.9 19 87 17 *
21:00 SSE 12 Mist 10 100.8 18 91 16 *
20:00 SSE 11 gust 16 Mainly Clear 13 100.8 18 90 17 *
19:00 SSE 11 gust 16 Cloudy 11 100.8 19 90 17 *
18:00 SSE 13 gust 18 Cloudy 13 100.8 20 88 18 *
17:00 SSE 14 gust 20 Mainly Sunny 16 100.7 21 83 18 27
16:00 SSE 18 Mostly Cloudy 16 100.7 22 80 18 28
15:00 SSE 10 gust 20 Cloudy 13 100.7 21 85 18 27
14:00 S 17 gust 22 Mainly Sunny 16 100.6 22 80 18 28
13:00 S 13 gust 19 Cloudy 15 100.6 22 83 19 28
12:00 SSE 10 gust 20 Mist 10 100.6 20 92 18 *
11:00 SSE 16 gust 21 Mist 8 100.6 19 96 18 *
 
Map of Atlantic - Newfoundland marine weather areas Southwestern Grand Banks - 44138 Banquereau - 44139 Tail of the Bank - 44140 Nickerson Bank - 44251 Northeast Burgeo Bank - 44255 Blanc-Sablon Airport Cap Whittle Chevery Natashquan Airport Heath Point Miscou Island Grand Étang Ingonish Beach North Mountain St.Paul Island J.A. Douglas McCurdy Sydney Airport Charlottetown Airport East Point North Cape Argentia Bonavista Burgeo Cape Race Corner Brook Daniel's Harbour Englee Ferolle Point La Scie Port aux Basques Rocky Harbour Sagona Island St. Anthony Airport St. John's Int'l Airport St. Lawrence Stephenville Airport Twillingate Winterland Wreckhouse Cartwright Airport Mary's Harbour Grates Cove Pool's Island Marticot Island Long Pond Îles de la Madeleine Airport
Legend: buoyBuoy land stationLand Station